Weather History for Lafayette, LA

Change the Weather History Date:

Saturday, February 18, 2012

  Actual Average Record
Temperature  
Mean Temperature 60 °F 56 °F  
Max Temperature 63 °F 66 °F 82 °F (1956)
Min Temperature 56 °F 47 °F 20 °F (1900)
Degree Days  
Heating Degree Days 5 9  
Month to date heating degree days 146 194  
Since 1 July heating degree days 936 1150  
Growing Degree Days 10 (Base 50)    
Moisture  
Dew Point 58 °F    
Average Humidity 95    
Maximum Humidity 100    
Minimum Humidity 90    
Precipitation  
Precipitation 2.59 in 0.16 in 3.92 in (1988)
Month to date precipitation 4.76 2.98  
Year to date precipitation 11.46 8.65  
Snow  
Snow 0.00 in 0.00 in T in (1928)
Month to date snowfall 0.0 0.0  
Since 1 July snowfall 0.0 0.0  
Snow Depth 0.00 in    
Sea Level Pressure  
Sea Level Pressure 29.78 in    
Wind  
Wind Speed 6 mph (ENE)    
Max Wind Speed 35 mph    
Max Gust Speed 41 mph    
Visibility 5 miles    
Events Fog , Rain , Thunderstorm    
T = Trace of Precipitation, MM = Missing Value Source: NWS Daily Summary

Daily Weather History Graph

Daily Weather History Graph

Search for Another Location

Airport:

Trip Planner

Search our weather history database for the weather conditions in past years. The results will help you decide how hot, cold, wet, or windy it might be!

Date:

Astronomy

Feb. 18, 2012 Rise Set
Actual Time 6:45 AM CST 5:58 PM CST
Civil Twilight 6:21 AM CST 6:22 PM CST
Nautical Twilight 5:53 AM CST 6:50 PM CST
Astronomical Twilight 5:25 AM CST 7:18 PM CST
Moon 4:14 AM CST (2/18) 3:05 PM CST (2/18)
Length of Visible Light 12h 01m
Length of Day
11h 12m
Waning Crescent, 11% of the Moon is Illuminated
Feb 18
Waning Crescent
Feb 21
New
Feb 29
First Quarter
Mar 8
Full
Mar 14
Last Quarter

Hourly Weather History & Observations

Time (CST) Temp. Dew Point Humidity Pressure Visibility Wind Dir Wind Speed Gust Speed Precip Events Conditions
12:53 AM 60.1 °F 57.9 °F 93% 29.92 in 9.0 mi Calm Calm - 0.00 in   Partly Cloudy
1:53 AM 60.1 °F 57.9 °F 93% 29.91 in 6.0 mi North 3.5 mph - N/A   Mostly Cloudy
2:53 AM 59.0 °F 57.9 °F 96% 29.89 in 5.0 mi Calm Calm - N/A   Mostly Cloudy
3:53 AM 59.0 °F 57.9 °F 96% 29.87 in 6.0 mi Calm Calm - 0.00 in Rain Light Rain
4:53 AM 60.1 °F 57.9 °F 93% 29.85 in 5.0 mi ENE 3.5 mph - 0.03 in   Overcast
5:03 AM 60.8 °F 57.2 °F 88% 29.85 in 6.0 mi NE 3.5 mph - N/A Thunderstorm Overcast
5:06 AM 60.8 °F 57.2 °F 88% 29.84 in 6.0 mi NE 5.8 mph - N/A   Overcast
5:36 AM 60.8 °F 59.0 °F 94% 29.83 in 7.0 mi North 4.6 mph - 0.02 in Rain Light Rain
5:51 AM 60.8 °F 59.0 °F 94% 29.84 in 1.8 mi South 4.6 mph - 0.15 in Rain Heavy Rain
5:53 AM 60.1 °F 59.0 °F 96% 29.82 in 1.2 mi Calm Calm - 0.20 in Rain Heavy Rain
6:07 AM 60.8 °F 59.0 °F 94% 29.81 in 2.0 mi East 6.9 mph - 0.08 in Rain Heavy Rain
6:14 AM 60.8 °F 59.0 °F 94% 29.81 in 2.0 mi Variable 4.6 mph - 0.08 in Rain Light Rain
6:53 AM 61.0 °F 59.0 °F 93% 29.81 in 2.0 mi North 10.4 mph 18.4 mph 0.09 in Rain Light Rain
7:00 AM 60.8 °F 59.0 °F 94% 29.81 in 5.0 mi Variable 3.5 mph - 0.02 in Rain Rain
7:09 AM 62.6 °F 60.8 °F 94% 29.80 in 6.0 mi East 8.1 mph 26.5 mph 0.04 in Rain Rain
7:17 AM 62.6 °F 60.8 °F 94% 29.80 in 3.0 mi ESE 8.1 mph 16.1 mph 0.10 in Rain Heavy Rain
7:27 AM 60.8 °F 60.8 °F 100% 29.78 in 2.0 mi ENE 8.1 mph 17.3 mph 0.19 in Rain Heavy Rain
7:53 AM 61.0 °F 60.1 °F 97% 29.77 in 0.8 mi East 9.2 mph - 0.37 in Rain Heavy Rain
8:00 AM 60.8 °F 60.8 °F 100% 29.78 in 1.8 mi East 6.9 mph 17.3 mph 0.03 in Rain Rain
8:13 AM 62.6 °F 60.8 °F 94% 29.78 in 0.5 mi ENE 5.8 mph - 0.23 in Fog , Rain Heavy Rain
8:18 AM 62.6 °F 60.8 °F 94% 29.76 in 1.0 mi East 11.5 mph - 0.34 in Rain Heavy Rain
8:31 AM 62.6 °F 60.8 °F 94% 29.77 in 2.5 mi NNW 8.1 mph - 0.39 in Rain Rain
8:38 AM 62.6 °F 60.8 °F 94% 29.76 in 2.5 mi ENE 5.8 mph - 0.41 in Rain Rain
8:53 AM 61.0 °F 60.1 °F 97% 29.74 in 1.2 mi East 9.2 mph - 0.50 in Rain Heavy Rain
9:13 AM 60.8 °F 60.8 °F 100% 29.71 in 2.0 mi ENE 13.8 mph 21.9 mph 0.07 in Rain Light Rain
9:21 AM 60.8 °F 60.8 °F 100% 29.73 in 8.0 mi ESE 4.6 mph 21.9 mph 0.08 in Rain Light Rain
9:36 AM 60.8 °F 60.8 °F 100% 29.63 in 7.0 mi East 16.1 mph 24.2 mph 0.09 in Rain Light Rain
9:40 AM 60.8 °F 60.8 °F 100% - 5.0 mi WSW 34.5 mph 41.4 mph 0.11 in Rain Light Rain
9:42 AM 62.6 °F 60.8 °F 94% - 1.5 mi SW 20.7 mph 41.4 mph 0.17 in Rain Heavy Rain
9:45 AM 62.6 °F 60.8 °F 94% - 0.8 mi SW 26.5 mph 41.4 mph 0.28 in Rain Heavy Rain
9:53 AM 61.0 °F 59.0 °F 93% - 0.5 mi SW 15.0 mph 35.7 mph 0.42 in Fog , Rain Heavy Rain
9:57 AM 60.8 °F 59.0 °F 94% - 1.0 mi SW 16.1 mph 32.2 mph 0.03 in Rain Heavy Rain
10:05 AM 62.6 °F 60.8 °F 94% - 2.0 mi West 11.5 mph 25.3 mph 0.06 in Rain Heavy Rain
10:14 AM 62.6 °F 60.8 °F 94% - 3.0 mi West 12.7 mph 19.6 mph 0.08 in Rain Heavy Rain
10:40 AM 60.8 °F 59.0 °F 94% - 10.0 mi North 18.4 mph 27.6 mph 0.10 in Rain Light Rain
10:53 AM 60.1 °F 57.9 °F 93% - 10.0 mi NNE 9.2 mph 19.6 mph 0.10 in Rain Light Rain
11:03 AM 60.8 °F 57.2 °F 88% - 10.0 mi NNE 11.5 mph - 0.00 in Rain Light Rain
11:33 AM 59.0 °F 57.2 °F 94% - 4.0 mi NNE 19.6 mph - 0.03 in Rain Rain
11:53 AM 57.9 °F 55.9 °F 93% - 10.0 mi NNE 16.1 mph 25.3 mph 0.04 in Rain Light Rain
12:24 PM 57.2 °F 55.4 °F 94% - 2.0 mi Calm Calm - 0.11 in Rain Heavy Rain
12:36 PM 57.2 °F 55.4 °F 94% - 3.0 mi North 8.1 mph - 0.14 in Rain Heavy Rain
12:45 PM 57.2 °F 55.4 °F 94% - 2.0 mi NNE 6.9 mph - 0.18 in Rain Heavy Rain
12:53 PM 57.0 °F 55.0 °F 93% - 2.5 mi NNE 9.2 mph - 0.21 in Rain Rain
1:08 PM 57.2 °F 55.4 °F 94% - 4.0 mi NE 9.2 mph - 0.03 in Rain Light Rain
1:53 PM 57.0 °F 55.0 °F 93% 29.79 in 3.0 mi NNE 5.8 mph - 0.13 in Rain Rain
2:32 PM 57.2 °F 55.4 °F 94% 29.76 in 6.0 mi ENE 5.8 mph - 0.06 in Rain Rain
2:53 PM 57.0 °F 55.0 °F 93% 29.75 in 8.0 mi NNE 8.1 mph - 0.09 in Rain Light Rain
3:07 PM 57.2 °F 55.4 °F 94% 29.76 in 2.0 mi NNE 3.5 mph - 0.09 in Rain Heavy Rain
3:10 PM 57.2 °F 55.4 °F 94% 29.76 in 1.2 mi ENE 5.8 mph - 0.16 in Rain Heavy Rain
3:24 PM 57.2 °F 55.4 °F 94% 29.75 in 3.0 mi ENE 4.6 mph - 0.21 in Rain Rain
3:53 PM 57.0 °F 55.9 °F 96% 29.75 in 4.0 mi East 4.6 mph - 0.30 in Rain Heavy Rain
4:29 PM 57.2 °F 55.4 °F 94% 29.73 in 10.0 mi East 4.6 mph - 0.06 in   Overcast
4:53 PM 57.9 °F 55.9 °F 93% 29.70 in 10.0 mi ESE 8.1 mph 16.1 mph 0.06 in   Overcast
5:53 PM 59.0 °F 57.0 °F 93% 29.70 in 10.0 mi Variable 3.5 mph - N/A   Overcast
6:53 PM 57.9 °F 55.9 °F 93% 29.73 in 10.0 mi Calm Calm - N/A   Overcast
7:53 PM 57.9 °F 55.9 °F 93% 29.74 in 10.0 mi SSE 4.6 mph - N/A   Overcast
8:53 PM 57.9 °F 57.0 °F 97% 29.78 in 10.0 mi Calm Calm - N/A   Overcast
9:53 PM 59.0 °F 57.0 °F 93% 29.79 in 10.0 mi Variable 3.5 mph - N/A   Overcast
10:53 PM 59.0 °F 57.0 °F 93% 29.78 in 10.0 mi South 3.5 mph - N/A   Overcast
11:53 PM 59.0 °F 57.0 °F 93% 29.79 in 2.5 mi WSW 5.8 mph - 0.05 in Rain Heavy Rain